GW3397 Weather Reports


Display with metric or nautical units.
time (UTC)temp
F
wind
direction
speed
MPH
gust
MPH
rain 1hr
in
rain 24hr
in
rain mn
in
humidity
%
barometer
mb
20260502130422 43 330 6.0 10.0 0.00 0.03 0.03 83 1016.5
20260502123405 42 300 7.0 8.0 0.00 0.03 0.03 88 1016.4
20260502122902 42 282 7.0 8.0 0.00 0.03 0.03 88 1016.6
20260502122358 42 311 11.0 13.0 0.00 0.03 0.03 88 1016.5
20260502121856 43 297 11.0 13.0 0.00 0.03 0.03 88 1016.3
20260502121353 43 269 6.0 11.0 0.00 0.03 0.03 89 1016.3
20260502120845 42 307 5.0 9.0 0.00 0.03 0.03 89 1016.5
20260502120341 43 317 7.0 9.0 0.00 0.03 0.03 88 1016.4
20260502115838 43 291 6.0 14.0 0.00 0.03 0.03 88 1016.3
20260502115335 43 288 5.0 10.0 0.00 0.03 0.03 89 1016.6
20260502114832 42 302 6.0 10.0 0.00 0.03 0.03 89 1016.5
20260502114329 41 286 5.0 11.0 0.00 0.03 0.03 90 1016.4
20260502113826 41 312 6.0 8.0 0.00 0.03 0.03 91 1016.4
20260502113323 41 316 5.0 10.0 0.00 0.03 0.03 91 1016.4
20260502112822 41 318 6.0 6.0 0.00 0.03 0.03 91 1016.3
20260502112318 41 310 6.0 10.0 0.00 0.03 0.03 91 1016.4
20260502111816 41 329 6.0 8.0 0.00 0.03 0.03 92 1016.3
20260502111313 41 316 6.0 10.0 0.00 0.03 0.03 92 1016.2
20260502110811 41 286 3.0 6.0 0.00 0.03 0.03 92 1016.2
20260502110309 40 308 7.0 9.0 0.00 0.03 0.03 92 1016.1
20260502105806 40 310 6.0 7.0 0.00 0.03 0.03 92 1016.2
20260502105305 40 282 6.0 9.0 0.00 0.03 0.03 92 1016.3
20260502104800 40 282 5.0 7.0 0.00 0.03 0.03 92 1016.1
20260502104257 40 284 2.0 8.0 0.00 0.03 0.03 92 1016.0
20260502103755 40 298 6.0 7.0 0.00 0.03 0.03 92 1016.0
20260502103252 40 256 5.0 7.0 0.00 0.03 0.03 92 1016.0
20260502102749 40 290 4.0 6.0 0.00 0.03 0.03 92 1015.8
20260502102245 40 262 5.0 6.0 0.00 0.03 0.03 92 1015.9
20260502101744 40 294 3.0 6.0 0.00 0.03 0.03 92 1015.8
20260502101241 40 291 5.0 6.0 0.00 0.03 0.03 92 1015.6
20260502100739 40 325 8.0 10.0 0.00 0.03 0.03 92 1015.8
20260502100238 40 286 3.0 3.0 0.00 0.03 0.03 93 1015.7
20260502091212 40 311 5.0 7.0 0.00 0.03 0.03 93 1015.4
20260502090709 40 304 3.0 5.0 0.00 0.03 0.03 93 1015.2
20260502090205 40 312 4.0 5.0 0.00 0.03 0.03 93 1014.9
20260502071102 40 287 5.0 7.0 0.00 0.03 0.03 95 1015.1
20260502070600 40 328 3.0 3.0 0.00 0.03 0.03 95 1014.8
20260502070057 40 287 2.0 5.0 0.00 0.03 0.03 95 1014.9
20260502065555 40 313 3.0 7.0 0.00 0.03 0.03 95 1015.0
20260502065053 41 303 3.0 3.0 0.00 0.03 0.03 95 1015.1
20260502064551 41 314 4.0 5.0 0.00 0.03 0.03 95 1014.9
20260502064048 41 302 5.0 8.0 0.00 0.03 0.03 95 1015.1
20260502063545 41 302 5.0 8.0 0.00 0.03 0.03 95 1015.1
20260502063043 41 326 4.0 8.0 0.00 0.03 0.03 95 1015.1
20260502062539 41 317 4.0 10.0 0.07 0.03 0.03 95 1015.3
20260502062032 41 293 3.0 8.0 0.07 0.03 0.03 95 1015.1
20260502061530 41 288 6.0 8.0 0.05 0.02 0.02 95 1015.1
20260502061026 41 298 3.0 3.0 0.00 0.01 0.01 95 1015.0
20260502060521 41 319 4.0 5.0 0.00 0.01 0.01 95 1014.8
20260502060018 41 322 3.0 3.0 0.00 0.01 0.01 95 1015.1
20260502055516 42 288 4.0 5.0 0.00 0.01 0.01 95 1015.1
20260502055015 42 288 4.0 5.0 0.00 0.01 0.01 95 1015.0
20260502054513 42 311 4.0 6.0 0.00 0.01 0.01 95 1015.4
20260502054009 42 257 4.0 7.0 0.00 0.01 0.01 95 1015.4
20260502053506 42 298 5.0 6.0 0.00 0.01 0.01 95 1015.3
20260502053004 42 303 3.0 6.0 0.00 0.01 0.01 95 1015.3
20260502052502 42 308 2.0 3.0 0.00 0.01 0.01 95 1015.2
20260502052000 42 337 2.0 5.0 0.00 0.01 0.01 94 1015.3
20260502051458 42 312 3.0 5.0 0.00 0.01 0.01 94 1015.1
20260502050955 43 318 6.0 7.0 0.00 0.01 0.01 94 1015.2
20260502050451 43 319 4.0 5.0 0.00 0.01 0.01 94 1015.1
20260502045949 43 318 2.0 3.0 0.00 0.01 0.01 94 1015.2
20260502045445 43 343 4.0 5.0 0.00 0.01 0.01 94 1015.3
20260502044942 43 334 2.0 3.0 0.00 0.01 0.01 94 1015.3
20260502044438 43 335 1.0 3.0 0.00 0.01 0.01 94 1015.1
20260502043935 43 318 2.0 3.0 0.00 0.01 0.01 94 1015.4
20260502043433 44 336 2.0 3.0 0.00 0.01 0.01 94 1015.1
20260502042932 44 330 3.0 3.0 0.00 0.01 0.01 93 1015.1
20260502042430 44 331 2.0 3.0 0.00 0.01 0.01 93 1015.0
20260502041926 44 320 2.0 5.0 0.00 0.01 0.01 93 1015.1
20260502041425 44 305 2.0 5.0 0.07 0.01 0.01 93 1015.3
20260502040921 44 323 1.0 2.0 0.07 0.01 0.01 93 1015.2
20260502040418 44 334 1.0 2.0 0.05 0.00 0.00 93 1014.8
20260502035914 44 325 2.0 2.0 0.05 0.03 0.03 93 1015.2
20260502035411 45 315 1.0 1.0 0.00 0.02 0.02 93 1015.2
20260502034908 45 311 1.0 1.0 0.00 0.02 0.02 92 1015.1
20260502034407 45 307 0.0 1.0 0.07 0.02 0.02 92 1015.2
20260502033905 45 279 1.0 2.0 0.07 0.02 0.02 92 1015.0
20260502033402 45 323 0.0 0.0 0.00 0.01 0.01 92 1014.9
20260502032859 45 318 0.0 1.0 0.00 0.01 0.01 92 1014.9
20260502032355 45 320 0.0 0.0 0.00 0.01 0.01 92 1015.1
20260502031852 45 319 0.0 0.0 0.00 0.01 0.01 92 1015.2
20260502031351 45 323 0.0 0.0 0.00 0.01 0.01 92 1015.0
20260502030848 45 309 0.0 0.0 0.00 0.01 0.01 92 1014.9
20260502030347 45 269 0.0 1.0 0.00 0.01 0.01 92 1015.1
20260502025844 45 239 1.0 1.0 0.00 0.01 0.01 92 1015.3
20260502025341 45 313 0.0 0.0 0.00 0.01 0.01 92 1015.3
20260502024839 45 312 0.0 0.0 0.00 0.01 0.01 92 1015.3
20260502024336 45 316 0.0 0.0 0.00 0.01 0.01 91 1015.2
20260502023834 45 315 0.0 0.0 0.00 0.01 0.01 91 1015.3
20260502023332 45 315 0.0 0.0 0.00 0.01 0.01 91 1015.1
20260502022830 46 315 0.0 0.0 0.00 0.01 0.01 90 1015.2
20260502022325 46 320 0.0 0.0 0.07 0.01 0.01 89 1015.0
20260502021822 46 323 0.0 1.0 0.07 0.01 0.01 89 1015.1
20260502021320 46 319 0.0 1.0 0.00 0.00 0.00 89 1014.9
20260502020817 46 325 0.0 0.0 0.00 0.00 0.00 88 1015.3
20260502020314 46 324 0.0 0.0 0.00 0.00 0.00 87 1015.0
20260502015811 46 322 0.0 1.0 0.00 0.00 0.00 87 1015.2
20260502015308 47 297 2.0 2.0 0.00 0.00 0.00 85 1015.4
20260502014806 48 296 2.0 3.0 0.00 0.00 0.00 75 1015.3
20260502014302 48 296 2.0 3.0 0.00 0.00 0.00 75 1015.2
20260502013758 48 296 2.0 3.0 0.00 0.00 0.00 75 1015.0
20260502013254 48 296 2.0 3.0 0.00 0.00 0.00 75 1015.0
20260502012751 48 296 2.0 3.0 0.00 0.00 0.00 75 1015.2
20260502012249 48 296 2.0 3.0 0.00 0.00 0.00 75 1015.1
20260502011746 48 296 2.0 3.0 0.00 0.00 0.00 75 1015.0
20260502011242 48 315 3.0 6.0 0.00 0.00 0.00 74 1015.0
20260502010740 48 313 2.0 6.0 0.00 0.00 0.00 75 1014.9
20260502010235 49 317 1.0 2.0 0.00 0.00 0.00 74 1014.9
20260502005733 49 335 4.0 5.0 0.00 0.00 0.00 70 1014.8
20260502005231 49 329 3.0 3.0 0.00 0.00 0.00 70 1014.9
20260502004727 50 295 2.0 2.0 0.00 0.00 0.00 66 1015.0
20260502004223 50 295 2.0 2.0 0.00 0.00 0.00 66 1014.7
20260502003721 50 306 2.0 5.0 0.00 0.00 0.00 65 1014.7
20260502003219 50 317 3.0 3.0 0.00 0.00 0.00 64 1014.5
20260502002714 50 330 2.0 3.0 0.00 0.00 0.00 65 1014.5
20260502002212 50 328 1.0 1.0 0.00 0.00 0.00 64 1014.4
20260502001709 50 337 1.0 2.0 0.00 0.00 0.00 63 1014.3
20260502001207 51 333 1.0 1.0 0.00 0.00 0.00 60 1014.2
20260502000704 51 333 1.0 1.0 0.00 0.00 0.00 60 1013.9
20260502000203 51 333 1.0 1.0 0.00 0.00 0.00 60 1014.0
20260501235658 51 333 1.0 1.0 0.00 0.00 0.00 60 1014.1
20260501235154 51 333 1.0 3.0 0.00 0.00 0.00 61 1014.3
20260501234649 51 341 1.0 6.0 0.00 0.00 0.00 59 1014.2
20260501234147 51 292 2.0 3.0 0.00 0.00 0.00 59 1014.2
20260501233644 52 332 3.0 5.0 0.00 0.00 0.00 59 1014.2
20260501233142 52 311 4.0 6.0 0.00 0.00 0.00 59 1014.1
20260501232638 52 316 4.0 7.0 0.00 0.00 0.00 58 1014.2
20260501232135 52 307 1.0 2.0 0.00 0.00 0.00 57 1013.7
20260501231633 53 310 3.0 5.0 0.00 0.00 0.00 56 1014.0
20260501231131 53 270 2.0 3.0 0.00 0.00 0.00 54 1014.0
20260501230629 53 302 3.0 3.0 0.00 0.00 0.00 55 1014.1
20260501230127 53 273 3.0 6.0 0.00 0.00 0.00 54 1014.0
20260501225624 53 303 5.0 7.0 0.00 0.00 0.00 56 1014.0
20260501225120 53 312 4.0 5.0 0.00 0.00 0.00 55 1014.0
20260501224618 53 315 4.0 7.0 0.00 0.00 0.00 53 1013.6
20260501224114 54 316 3.0 3.0 0.00 0.00 0.00 55 1013.9
20260501223611 54 296 5.0 7.0 0.00 0.00 0.00 53 1013.6
20260501223108 54 278 2.0 6.0 0.00 0.00 0.00 53 1013.6
20260501222603 54 315 2.0 3.0 0.00 0.00 0.00 55 1013.7
20260501222101 54 243 4.0 5.0 0.00 0.00 0.00 52 1013.7
20260501221557 54 324 2.0 5.0 0.00 0.00 0.00 53 1013.7
20260501221055 54 287 5.0 7.0 0.00 0.00 0.00 54 1013.6
20260501220552 54 303 9.0 13.0 0.00 0.00 0.00 54 1013.5
20260501220049 55 229 4.0 9.0 0.00 0.00 0.00 53 1013.5
20260501215545 55 220 3.0 7.0 0.00 0.00 0.00 51 1013.5
20260501215041 55 305 2.0 7.0 0.00 0.00 0.00 51 1013.6
20260501214536 55 292 3.0 6.0 0.00 0.00 0.00 51 1013.5
20260501214032 55 304 5.0 6.0 0.00 0.00 0.00 50 1013.5
20260501213530 55 293 3.0 7.0 0.00 0.00 0.00 48 1013.2
20260501213025 54 320 2.0 7.0 0.00 0.00 0.00 49 1013.4
20260501212522 55 357 3.0 7.0 0.00 0.00 0.00 50 1013.6
20260501212019 55 294 5.0 9.0 0.00 0.00 0.00 51 1013.3
20260501211516 55 0 2.0 6.0 0.00 0.00 0.00 52 1013.3
20260501211014 55 300 2.0 9.0 0.00 0.00 0.00 52 1013.4
20260501210509 55 324 3.0 6.0 0.00 0.00 0.00 52 1013.2
20260501210007 54 322 3.0 7.0 0.00 0.00 0.00 50 1013.4
20260501205503 54 345 5.0 8.0 0.00 0.00 0.00 51 1013.4
20260501205001 54 306 7.0 10.0 0.00 0.00 0.00 50 1013.4
20260501204456 55 287 6.0 7.0 0.00 0.00 0.00 50 1013.3
20260501203953 55 324 5.0 9.0 0.00 0.00 0.00 51 1013.6
20260501203449 55 273 5.0 10.0 0.00 0.00 0.00 49 1013.2
20260501202947 55 312 7.0 9.0 0.00 0.00 0.00 48 1013.6
20260501202444 56 291 6.0 10.0 0.00 0.00 0.00 47 1013.4
20260501201940 56 317 7.0 13.0 0.00 0.00 0.00 49 1013.3
20260501201437 56 317 5.0 11.0 0.00 0.00 0.00 48 1013.5
20260501200934 55 341 2.0 6.0 0.00 0.00 0.00 54 1013.5
20260501200431 54 330 2.0 6.0 0.00 0.00 0.00 50 1013.7
20260501195929 54 303 6.0 10.0 0.00 0.00 0.00 48 1013.4
20260501195426 55 317 9.0 10.0 0.00 0.00 0.00 48 1013.4
20260501194921 55 276 8.0 11.0 0.00 0.00 0.00 48 1013.5
20260501194417 57 306 9.0 13.0 0.00 0.00 0.00 47 1013.6
20260501193913 57 306 9.0 10.0 0.00 0.00 0.00 47 1013.6
20260501193412 57 313 8.0 9.0 0.00 0.00 0.00 49 1013.6
20260501192909 55 292 5.0 10.0 0.00 0.00 0.00 49 1013.6
20260501192406 54 305 5.0 8.0 0.00 0.00 0.00 49 1013.7
20260501191903 54 275 7.0 8.0 0.00 0.00 0.00 49 1013.9
20260501191401 54 355 6.0 11.0 0.00 0.00 0.00 50 1013.9
20260501190857 54 281 6.0 8.0 0.00 0.00 0.00 49 1013.9
20260501190353 54 321 5.0 9.0 0.00 0.00 0.00 51 1013.9
20260501185848 55 339 5.0 6.0 0.00 0.00 0.00 47 1013.7
20260501185344 55 339 5.0 6.0 0.00 0.00 0.00 47 1013.7
20260501184840 54 317 7.0 9.0 0.00 0.00 0.00 50 1014.1
20260501184337 53 278 3.0 3.0 0.00 0.00 0.00 50 1013.9
20260501183832 53 278 3.0 3.0 0.00 0.00 0.00 50 1013.9
20260501183330 53 278 3.0 3.0 0.00 0.00 0.00 50 1014.1
20260501182826 53 317 5.0 6.0 0.00 0.00 0.00 52 1014.3
20260501182323 53 280 5.0 7.0 0.00 0.00 0.00 52 1014.1
20260501181820 54 340 5.0 6.0 0.00 0.00 0.00 52 1014.1
20260501181317 54 340 5.0 6.0 0.00 0.00 0.00 52 1014.1
20260501180814 55 302 6.0 9.0 0.00 0.00 0.00 51 1014.3
20260501180310 55 313 3.0 5.0 0.00 0.00 0.00 49 1014.3
20260501175808 55 315 7.0 8.0 0.00 0.00 0.00 51 1014.7
20260501175306 55 330 5.0 6.0 0.00 0.00 0.00 52 1014.5
20260501174801 55 290 4.0 6.0 0.00 0.00 0.00 49 1014.6
20260501174258 54 293 7.0 13.0 0.00 0.00 0.00 47 1014.6
20260501173756 55 283 9.0 10.0 0.00 0.00 0.00 52 1014.6
20260501173253 53 297 4.0 8.0 0.00 0.00 0.00 50 1014.4
20260501172749 54 24 6.0 7.0 0.00 0.00 0.00 50 1014.6
20260501172244 54 285 3.0 6.0 0.00 0.00 0.00 48 1014.7
20260501171740 55 302 7.0 9.0 0.00 0.00 0.00 47 1014.9
20260501171237 55 229 3.0 7.0 0.00 0.00 0.00 49 1014.8
20260501170734 53 0 4.0 6.0 0.00 0.00 0.00 50 1014.7
20260501170231 53 6 6.0 7.0 0.00 0.00 0.00 51 1015.0
20260501165728 53 6 6.0 7.0 0.00 0.00 0.00 51 1015.0
20260501165226 54 260 5.0 8.0 0.00 0.00 0.00 51 1015.0
20260501164723 54 301 8.0 10.0 0.00 0.00 0.00 47 1014.9
20260501164220 53 332 3.0 5.0 0.00 0.00 0.00 53 1015.0
20260501163716 53 20 7.0 10.0 0.00 0.00 0.00 53 1015.1
20260501163213 53 20 7.0 10.0 0.00 0.00 0.00 53 1015.4
20260501162709 54 327 7.0 10.0 0.00 0.00 0.00 50 1015.5
20260501162206 52 327 5.0 7.0 0.00 0.00 0.00 51 1015.4
20260501161704 52 349 7.0 13.0 0.00 0.00 0.00 52 1015.6
20260501161201 52 323 5.0 6.0 0.00 0.00 0.00 50 1015.5
20260501160656 53 331 9.0 13.0 0.00 0.00 0.00 52 1015.5
20260501160155 53 332 9.0 10.0 0.00 0.00 0.00 51 1015.6
20260501155651 53 332 9.0 10.0 0.00 0.00 0.00 51 1015.6
20260501155148 52 1 3.0 5.0 0.00 0.00 0.00 54 1015.3
20260501154645 52 14 3.0 9.0 0.00 0.00 0.00 54 1015.3
20260501154142 50 355 6.0 10.0 0.00 0.00 0.00 53 1015.5
20260501153639 51 335 5.0 6.0 0.00 0.00 0.00 54 1015.9
20260501153136 51 351 8.0 9.0 0.00 0.00 0.00 56 1015.5
20260501152633 50 348 7.0 14.0 0.00 0.00 0.00 55 1015.4
20260501152130 51 353 3.0 5.0 0.00 0.00 0.00 55 1015.6
20260501151627 51 290 8.0 9.0 0.00 0.00 0.00 57 1015.9
20260501151124 51 306 7.0 10.0 0.00 0.00 0.00 55 1015.5
20260501150620 51 309 10.0 14.0 0.00 0.00 0.00 57 1015.7
20260501150117 51 299 7.0 13.0 0.00 0.00 0.00 56 1015.6
20260501145612 50 316 7.0 8.0 0.00 0.00 0.00 56 1015.5
20260501145111 50 254 7.0 8.0 0.00 0.00 0.00 57 1015.7